Back to catalog

TITAN 3C TRANSTAGE DEB

AliveHEO
NORAD 28837·DEBRIS·🇺🇸 United States

Launched Dec 21, 1965 from Cape Canaveral Space Force Station

Loading…

Next Passes (next 24 hours)

TLE

AgingSource: Space-Track

Epoch: Aug 23, 2026, 09:55 UTC

1 28837U 65108CP  26235.41328493  .00000045  00000-0  00000-0 0  9999
2 28837  25.6035 222.9101 6525852 200.6784 354.2165  2.63341675 27606

Track TITAN 3C TRANSTAGE DEB in real time with AllMySat

Download on the App Store